GW5964 Weather Reports


time (UTC)temp
F
wind
direction
speed
knots
gust
knots
rain 1hr
in
rain 24hr
in
rain mn
in
humidity
%
barometer
mb
20260510164423 75 169 1.7 2.6 0.00 0.00 0.00 50 1016.8
20260510163922 73 77 1.7 2.6 0.00 0.00 0.00 49 1016.8
20260510163419 73 322 6.1 7.8 0.00 0.00 0.00 46 1017.0
20260510162919 74 40 3.5 3.5 0.00 0.00 0.00 49 1017.0
20260510162417 74 109 0.9 1.7 0.00 0.00 0.00 52 1017.1
20260510161913 74 123 2.6 5.2 0.00 0.00 0.00 49 1017.0
20260510161408 74 150 1.7 2.6 0.00 0.00 0.00 53 1017.2
20260510160905 73 154 3.5 5.2 0.00 0.00 0.00 50 1017.3
20260510160403 73 77 3.5 7.0 0.00 0.00 0.00 50 1017.3
20260510155901 73 198 3.5 6.1 0.00 0.00 0.00 50 1017.3
20260510155359 73 160 3.5 6.1 0.00 0.00 0.00 53 1017.3
20260510154854 73 114 3.5 3.5 0.00 0.00 0.00 52 1017.2
20260510154351 71 280 3.5 5.2 0.00 0.00 0.00 56 1017.3
20260510153845 72 275 0.9 1.7 0.00 0.00 0.00 56 1017.4
20260510153341 72 241 3.5 6.1 0.00 0.00 0.00 53 1017.3
20260510152838 71 298 1.7 2.6 0.00 0.00 0.00 54 1017.2
20260510152335 71 140 1.7 2.6 0.00 0.00 0.00 54 1017.0
20260510151831 71 308 4.3 5.2 0.00 0.00 0.00 55 1017.2
20260510151329 69 316 2.6 2.6 0.00 0.00 0.00 58 1017.2
20260510150825 70 359 2.6 2.6 0.00 0.00 0.00 55 1017.2
20260510150321 72 146 0.9 0.9 0.00 0.00 0.00 57 1017.2
20260510145817 72 110 0.0 0.9 0.00 0.00 0.00 60 1017.0
20260510145314 71 134 0.9 0.9 0.00 0.00 0.00 60 1017.0
20260510144810 70 329 3.5 6.1 0.00 0.00 0.00 60 1017.1
20260510144307 70 162 0.0 0.9 0.00 0.00 0.00 60 1017.1
20260510143807 70 141 1.7 3.5 0.00 0.00 0.00 62 1017.1
20260510143303 68 289 2.6 2.6 0.00 0.00 0.00 63 1017.0
20260510142800 69 335 3.5 3.5 0.00 0.00 0.00 62 1017.0
20260510142256 69 177 2.6 3.5 0.00 0.00 0.00 62 1016.8
20260510141754 68 208 2.6 5.2 0.00 0.00 0.00 62 1017.0
20260510141252 68 146 0.9 1.7 0.00 0.00 0.00 65 1016.9
20260510140748 68 147 0.0 0.9 0.00 0.00 0.00 62 1017.0
20260510140244 68 161 1.7 2.6 0.00 0.00 0.00 64 1016.9
20260510135737 68 69 0.9 0.9 0.00 0.00 0.00 65 1017.0
20260510135233 67 280 0.9 1.7 0.00 0.00 0.00 67 1017.0
20260510134731 67 127 0.0 0.9 0.00 0.00 0.00 67 1016.9
20260510134228 66 95 0.9 1.7 0.00 0.00 0.00 69 1017.0
20260510133724 65 102 0.9 1.7 0.00 0.00 0.00 70 1016.9
20260510133220 64 74 0.9 0.9 0.00 0.00 0.00 71 1016.9
20260510132716 64 15 0.9 1.7 0.00 0.00 0.00 69 1017.0
20260510132214 63 195 0.9 1.7 0.00 0.00 0.00 71 1017.1
20260510131711 64 212 1.7 2.6 0.00 0.00 0.00 71 1017.1
20260510131209 64 272 0.9 0.9 0.00 0.00 0.00 73 1017.0
20260510130659 62 270 1.7 3.5 0.00 0.00 0.00 74 1017.0
20260510130156 62 335 0.9 1.7 0.00 0.00 0.00 76 1016.9
20260510125652 61 118 0.9 1.7 0.00 0.00 0.00 75 1017.1
20260510125148 62 137 1.7 1.7 0.00 0.00 0.00 75 1017.2
20260510124646 61 87 0.0 0.0 0.00 0.00 0.00 77 1017.1
20260510124142 61 159 0.9 1.7 0.00 0.00 0.00 78 1017.1
20260510123638 60 109 0.9 0.9 0.00 0.00 0.00 78 1017.3
20260510123134 59 127 0.9 1.7 0.00 0.00 0.00 79 1017.1
20260510122630 58 244 1.7 2.6 0.00 0.00 0.00 82 1017.1
20260510122126 57 344 1.7 1.7 0.00 0.00 0.00 86 1017.1
20260510121623 56 118 1.7 1.7 0.00 0.00 0.00 91 1017.1
20260510121120 55 108 0.0 0.0 0.00 0.00 0.00 97 1016.9
20260510120618 54 76 0.0 0.0 0.00 0.00 0.00 98 1017.0
20260510120113 53 85 0.0 0.0 0.00 0.00 0.00 98 1016.6
20260510115610 53 112 0.0 0.9 0.00 0.00 0.00 99 1016.7
20260510115108 51 79 0.0 0.0 0.00 0.00 0.00 99 1016.6
20260510114603 50 76 0.0 0.0 0.00 0.00 0.00 99 1016.5
20260510114059 49 73 0.0 0.0 0.00 0.00 0.00 99 1016.6
20260510113555 48 74 0.0 0.0 0.00 0.00 0.00 99 1016.5
20260510113053 48 89 0.0 0.0 0.00 0.00 0.00 99 1016.3
20260510112549 47 74 0.0 0.0 0.00 0.00 0.00 99 1016.3
20260510112045 47 73 0.0 0.0 0.00 0.00 0.00 99 1016.3
20260510111542 46 75 0.0 0.0 0.00 0.00 0.00 99 1016.3
20260510111038 45 79 0.0 0.0 0.00 0.00 0.00 99 1016.3
20260510110534 44 68 0.0 0.0 0.00 0.00 0.00 98 1016.0
20260510110031 45 75 0.0 0.0 0.00 0.00 0.00 99 1016.1
20260510105526 45 77 0.0 0.0 0.00 0.00 0.00 99 1016.2
20260510105021 44 79 0.0 0.0 0.00 0.00 0.00 99 1016.0
20260510104518 44 83 0.0 0.0 0.00 0.00 0.00 99 1016.0
20260510104014 43 84 0.0 0.0 0.00 0.00 0.00 99 1015.8
20260510103506 43 76 0.0 0.0 0.00 0.00 0.00 99 1016.0
20260510103001 42 72 0.0 0.0 0.00 0.00 0.00 99 1015.8
20260510102452 41 74 0.0 0.0 0.00 0.00 0.00 99 1015.6
20260510101949 41 84 0.0 0.0 0.00 0.00 0.00 99 1015.6
20260510101447 42 84 0.0 0.0 0.00 0.00 0.00 99 1015.3
20260510100945 42 81 0.0 0.0 0.00 0.00 0.00 99 1015.4
20260510100441 42 81 0.0 0.0 0.00 0.00 0.00 99 1015.2
20260510095937 42 87 0.0 0.0 0.00 0.00 0.00 99 1015.2
20260510095433 42 81 0.0 0.0 0.00 0.00 0.00 99 1015.2
20260510094932 42 86 0.0 0.0 0.00 0.00 0.00 99 1015.0
20260510094427 42 81 0.0 0.0 0.00 0.00 0.00 99 1015.2
20260510093923 42 76 0.0 0.0 0.00 0.00 0.00 99 1014.9
20260510093419 41 82 0.0 0.0 0.00 0.00 0.00 99 1015.1
20260510092915 42 84 0.0 0.0 0.00 0.00 0.00 99 1015.0
20260510092413 42 89 0.0 0.0 0.00 0.00 0.00 99 1015.0
20260510091907 41 81 0.0 0.0 0.00 0.00 0.00 99 1015.0
20260510091404 41 81 0.0 0.0 0.00 0.00 0.00 99 1014.9
20260510090901 41 81 0.0 0.0 0.00 0.00 0.00 98 1014.9
20260510090357 41 80 0.0 0.0 0.00 0.00 0.00 98 1014.8
20260510085853 41 84 0.0 0.0 0.00 0.00 0.00 98 1014.8
20260510085348 41 84 0.0 0.0 0.00 0.00 0.00 99 1014.7
20260510084838 41 85 0.0 0.0 0.00 0.00 0.00 98 1014.7
20260510084336 41 88 0.0 0.0 0.00 0.00 0.00 98 1014.6
20260510083832 41 84 0.0 0.0 0.00 0.00 0.00 98 1014.7
20260510083329 41 84 0.0 0.0 0.00 0.00 0.00 98 1014.6
20260510082824 41 85 0.0 0.0 0.00 0.00 0.00 98 1014.5
20260510082322 41 85 0.0 0.0 0.00 0.00 0.00 98 1014.5
20260510081820 41 85 0.0 0.0 0.00 0.00 0.00 98 1014.6
20260510081316 41 87 0.0 0.0 0.00 0.00 0.00 98 1014.5
20260510080812 41 87 0.0 0.0 0.00 0.00 0.00 98 1014.5
20260510080307 41 84 0.0 0.0 0.00 0.00 0.00 98 1014.6
20260510075804 41 84 0.0 0.0 0.00 0.00 0.00 98 1014.4
20260510075305 41 84 0.0 0.0 0.00 0.00 0.00 98 1014.4
20260510074759 41 84 0.0 0.0 0.00 0.00 0.00 98 1014.6
20260510074255 42 86 0.0 0.0 0.00 0.00 0.00 98 1014.4
20260510073751 42 87 0.0 0.0 0.00 0.00 0.00 98 1014.4
20260510073247 42 84 0.0 0.0 0.00 0.00 0.00 98 1014.5
20260510072743 41 78 0.0 0.0 0.00 0.00 0.00 98 1014.5
20260510072240 41 79 0.0 0.0 0.00 0.00 0.00 98 1014.5
20260510071737 42 86 0.0 0.0 0.00 0.00 0.00 98 1014.6
20260510071233 42 74 0.0 0.0 0.00 0.00 0.00 98 1014.5
20260510070732 42 74 0.0 0.0 0.00 0.00 0.00 98 1014.5
20260510070229 42 83 0.0 0.0 0.00 0.00 0.00 98 1014.4
20260510065723 42 89 0.0 0.0 0.00 0.00 0.00 98 1014.3
20260510065220 42 87 0.0 0.0 0.00 0.00 0.00 98 1014.4
20260510064716 42 76 0.0 0.0 0.00 0.00 0.00 98 1014.3
20260510064214 42 78 0.0 0.0 0.00 0.00 0.00 98 1014.0
20260510063711 42 80 0.0 0.0 0.00 0.00 0.00 98 1014.3
20260510063207 42 80 0.0 0.0 0.00 0.00 0.00 98 1014.1
20260510062703 42 80 0.0 0.0 0.00 0.00 0.00 97 1014.3
20260510062159 42 80 0.0 0.0 0.00 0.00 0.00 98 1014.1
20260510061654 42 80 0.0 0.0 0.00 0.00 0.00 98 1014.3
20260510061152 42 80 0.0 0.0 0.00 0.00 0.00 98 1014.3
20260510060648 42 79 0.0 0.0 0.00 0.00 0.00 98 1014.1
20260510060145 42 79 0.0 0.0 0.00 0.00 0.00 97 1014.3
20260510055641 42 79 0.0 0.0 0.00 0.00 0.00 97 1014.3
20260510055140 42 79 0.0 0.0 0.00 0.00 0.00 97 1014.4
20260510054636 42 78 0.0 0.0 0.00 0.00 0.00 97 1014.3
20260510054132 42 78 0.0 0.0 0.00 0.00 0.00 97 1014.4
20260510053630 42 84 0.0 0.0 0.00 0.00 0.00 97 1014.4
20260510053127 42 81 0.0 0.0 0.00 0.00 0.00 97 1014.4
20260510052623 43 78 0.0 0.0 0.00 0.00 0.00 97 1014.4
20260510052119 43 85 0.0 0.0 0.00 0.00 0.00 97 1014.5
20260510051615 43 92 0.9 0.9 0.00 0.00 0.00 97 1014.4
20260510051112 43 81 0.0 0.0 0.00 0.00 0.00 97 1014.3
20260510050609 43 80 0.0 0.0 0.00 0.00 0.00 97 1014.5
20260510050107 43 86 0.0 0.0 0.00 0.00 0.00 97 1014.4
20260510045604 43 77 0.0 0.0 0.00 0.00 0.00 97 1014.4
20260510045100 44 79 0.0 0.0 0.00 0.00 0.00 97 1014.5
20260510044556 44 79 0.0 0.0 0.00 0.00 0.00 97 1014.0
20260510044054 44 79 0.0 0.0 0.00 0.00 0.00 97 1014.5
20260510043549 44 80 0.0 0.0 0.00 0.00 0.00 97 1014.5
20260510043045 44 76 0.0 0.0 0.00 0.00 0.00 96 1014.5
20260510042544 44 79 0.0 0.0 0.00 0.00 0.00 96 1014.5
20260510042040 44 78 0.0 0.0 0.00 0.00 0.00 96 1014.5
20260510041537 44 81 0.0 0.0 0.00 0.00 0.00 96 1014.3
20260510041034 44 81 0.0 0.0 0.00 0.00 0.00 96 1014.4
20260510040525 44 81 0.0 0.0 0.00 0.00 0.00 96 1014.4
20260510040021 44 81 0.0 0.0 0.00 0.00 0.00 96 1014.3
20260510035518 45 82 0.0 0.0 0.00 0.00 0.00 96 1014.5
20260510035017 45 82 0.0 0.0 0.00 0.00 0.00 96 1014.1
20260510034516 45 82 0.0 0.0 0.00 0.00 0.00 95 1014.1
20260510034012 45 82 0.0 0.0 0.00 0.00 0.00 95 1014.3
20260510033508 45 82 0.0 0.0 0.00 0.00 0.00 95 1014.4
20260510033007 46 82 0.0 0.0 0.00 0.00 0.00 95 1014.4
20260510032502 46 81 0.0 0.0 0.00 0.00 0.00 95 1014.3
20260510031957 46 81 0.0 0.0 0.00 0.00 0.00 95 1014.0
20260510031453 46 81 0.0 0.0 0.00 0.00 0.00 95 1014.1
20260510030949 46 85 0.0 0.0 0.00 0.00 0.00 94 1014.0
20260510030444 47 85 0.0 0.0 0.00 0.00 0.00 94 1014.1
20260510025942 47 78 0.0 0.0 0.00 0.00 0.00 94 1014.3
20260510025439 47 76 0.0 0.0 0.00 0.00 0.00 94 1014.3
20260510024936 47 84 0.0 0.0 0.00 0.00 0.00 94 1014.3
20260510024433 47 85 0.0 0.0 0.00 0.00 0.00 93 1014.4
20260510023928 47 82 0.0 0.0 0.00 0.00 0.00 93 1014.0
20260510023424 48 79 0.0 0.0 0.00 0.00 0.00 93 1014.0
20260510022922 48 79 0.0 0.0 0.00 0.00 0.00 92 1014.0
20260510022420 48 76 0.0 0.0 0.00 0.00 0.00 92 1013.9
20260510021920 48 79 0.0 0.0 0.00 0.00 0.00 92 1014.0
20260510021418 48 78 0.0 0.0 0.00 0.00 0.00 91 1013.8
20260510020915 48 81 0.0 0.0 0.00 0.00 0.00 91 1013.7
20260510020410 49 81 0.0 0.0 0.00 0.00 0.00 91 1013.6
20260510015905 50 80 0.0 0.0 0.00 0.00 0.00 90 1013.5
20260510015401 49 79 0.0 0.0 0.00 0.00 0.00 89 1013.6
20260510014856 50 80 0.0 0.0 0.00 0.00 0.00 89 1013.4
20260510014354 50 80 0.0 0.0 0.00 0.00 0.00 89 1013.2
20260510013850 51 75 0.0 0.0 0.00 0.00 0.00 88 1013.0
20260510013346 51 75 0.0 0.0 0.00 0.00 0.00 87 1013.0
20260510012841 51 72 0.0 0.0 0.00 0.00 0.00 87 1013.0
20260510012336 51 74 0.0 0.0 0.00 0.00 0.00 87 1012.9
20260510011831 51 75 0.0 0.0 0.00 0.00 0.00 86 1012.8
20260510011326 52 82 0.0 0.0 0.00 0.00 0.00 86 1012.7
20260510010823 53 87 0.0 0.0 0.00 0.00 0.00 85 1012.8
20260510010321 53 85 0.0 0.0 0.00 0.00 0.00 84 1012.7
20260510005817 54 75 0.0 0.0 0.00 0.00 0.00 83 1012.6
20260510005313 54 75 0.0 0.0 0.00 0.00 0.00 83 1012.4
20260510004811 55 76 0.0 0.0 0.00 0.00 0.00 82 1012.4
20260510004308 55 77 0.0 0.0 0.00 0.00 0.00 82 1012.4
20260510003805 55 77 0.0 0.0 0.00 0.00 0.00 80 1012.6
20260510003303 56 81 0.0 0.0 0.00 0.00 0.00 79 1012.3
20260510002801 57 82 0.0 0.0 0.00 0.00 0.00 78 1012.3
20260510002259 58 77 0.0 0.0 0.00 0.00 0.00 76 1012.1
20260510001755 59 78 0.0 0.0 0.00 0.00 0.00 75 1012.1
20260510001253 60 91 0.0 0.0 0.00 0.00 0.00 70 1012.3
20260510000749 60 120 0.9 0.9 0.00 0.00 0.00 68 1012.1
20260510000248 60 122 0.0 0.0 0.00 0.00 0.00 67 1011.9
20260509235744 61 34 0.9 0.9 0.00 0.00 0.00 67 1012.0
20260509235240 62 353 0.9 0.9 0.00 0.00 0.00 65 1011.9
20260509234736 63 85 0.0 0.0 0.00 0.00 0.00 63 1011.9
20260509234233 64 127 1.7 1.7 0.00 0.00 0.00 62 1011.8
20260509233731 65 130 0.9 0.9 0.00 0.00 0.00 61 1011.8
20260509233229 64 132 0.0 0.0 0.00 0.00 0.00 59 1011.9
20260509232724 64 237 2.6 2.6 0.00 0.00 0.00 59 1011.8
20260509232222 64 74 0.9 1.7 0.00 0.00 0.00 60 1011.8
20260509231717 64 117 0.0 0.9 0.00 0.00 0.00 60 1011.8
20260509231215 64 12 0.9 1.7 0.00 0.00 0.00 59 1011.6
20260509230712 64 7 0.9 0.9 0.00 0.00 0.00 59 1011.6
20260509230203 65 56 1.7 2.6 0.00 0.00 0.00 58 1011.6
20260509225659 66 132 0.9 0.9 0.00 0.00 0.00 55 1011.6
20260509225155 67 230 0.9 1.7 0.00 0.00 0.00 54 1011.5
20260509224650 67 304 1.7 3.5 0.00 0.00 0.00 53 1011.7
20260509224147 67 297 1.7 1.7 0.00 0.00 0.00 53 1011.8
20260509223644 67 77 0.9 1.7 0.00 0.00 0.00 55 1011.7
20260509223141 66 279 2.6 3.5 0.00 0.00 0.00 54 1011.9
20260509222638 66 76 0.0 0.9 0.00 0.00 0.00 55 1011.8
20260509222133 68 97 1.7 1.7 0.00 0.00 0.00 54 1011.9
20260509221631 68 273 1.7 3.5 0.00 0.00 0.00 53 1012.0
20260509221126 66 141 1.7 2.6 0.00 0.00 0.00 54 1012.0
20260509220622 66 173 0.9 0.9 0.00 0.00 0.00 54 1011.9
20260509220119 66 84 0.0 0.9 0.00 0.00 0.00 55 1011.9
20260509215615 65 42 0.0 0.0 0.00 0.00 0.00 57 1012.0
20260509215112 65 173 1.7 1.7 0.00 0.00 0.00 55 1012.0
20260509214608 66 323 3.5 5.2 0.00 0.00 0.00 53 1012.0
20260509214105 66 355 1.7 2.6 0.00 0.00 0.00 53 1012.0
20260509213600 66 256 1.7 2.6 0.00 0.00 0.00 52 1012.0
20260509213057 66 322 3.5 3.5 0.00 0.00 0.00 52 1011.8
20260509212555 66 52 5.2 7.0 0.00 0.00 0.00 52 1011.9
20260509212052 66 166 1.7 2.6 0.00 0.00 0.00 53 1011.7
20260509211547 66 79 0.0 0.9 0.00 0.00 0.00 54 1011.6
20260509211044 67 160 0.9 0.9 0.00 0.00 0.00 51 1011.7
20260509210541 67 71 1.7 1.7 0.00 0.00 0.00 51 1011.6
20260509210037 66 312 3.5 3.5 0.00 0.00 0.00 54 1011.7
20260509205532 68 60 1.7 2.6 0.00 0.00 0.00 52 1011.5
20260509205028 67 120 0.9 1.7 0.00 0.00 0.00 49 1011.6
20260509204524 66 41 1.7 1.7 0.00 0.00 0.00 52 1011.8
20260509204021 67 275 6.1 7.0 0.00 0.00 0.00 50 1011.6
20260509203516 66 329 1.7 1.7 0.00 0.00 0.00 51 1011.8
20260509203015 67 303 2.6 5.2 0.00 0.00 0.00 49 1011.5
20260509202509 67 170 0.9 0.9 0.00 0.00 0.00 49 1011.5
20260509202005 67 148 1.7 2.6 0.00 0.00 0.00 48 1011.6
20260509201500 67 38 0.0 0.9 0.00 0.00 0.00 49 1011.4
20260509200958 67 314 4.3 5.2 0.00 0.00 0.00 49 1011.3
20260509200452 67 135 0.9 0.9 0.00 0.00 0.00 50 1011.3
20260509195948 66 93 0.9 1.7 0.00 0.00 0.00 47 1011.2
20260509195439 66 271 4.3 5.2 0.00 0.00 0.00 47 1011.4
20260509194938 66 295 5.2 7.8 0.00 0.00 0.00 46 1011.5
20260509194434 67 121 1.7 1.7 0.00 0.00 0.00 49 1011.3
20260509193932 67 310 2.6 3.5 0.00 0.00 0.00 48 1011.2
20260509193431 68 275 2.6 3.5 0.00 0.00 0.00 47 1011.1
20260509192927 70 189 3.5 6.1 0.00 0.00 0.00 48 1011.2
20260509192424 71 339 1.7 1.7 0.00 0.00 0.00 47 1011.2
20260509191919 70 83 1.7 3.5 0.00 0.00 0.00 48 1011.3
20260509191415 70 264 4.3 5.2 0.00 0.00 0.00 45 1011.2
20260509190911 68 211 4.3 7.0 0.00 0.00 0.00 47 1011.3
20260509190408 68 258 5.2 6.1 0.00 0.00 0.00 50 1011.4
20260509185906 66 136 0.9 1.7 0.00 0.00 0.00 50 1011.1
20260509185402 67 199 4.3 6.1 0.00 0.00 0.00 50 1011.2
20260509184858 68 146 1.7 1.7 0.00 0.00 0.00 47 1011.0
20260509184355 69 265 4.3 6.1 0.00 0.00 0.00 50 1011.3
20260509183854 69 151 2.6 3.5 0.00 0.00 0.00 46 1011.2
20260509183348 69 53 1.7 1.7 0.00 0.00 0.00 45 1011.3
20260509182844 67 312 2.6 2.6 0.00 0.00 0.00 53 1011.2
20260509182341 66 153 3.5 6.1 0.00 0.00 0.00 47 1011.3
20260509181838 66 224 1.7 3.5 0.00 0.00 0.00 49 1011.4
20260509181335 67 315 3.5 5.2 0.00 0.00 0.00 48 1011.1
20260509180832 66 245 2.6 2.6 0.00 0.00 0.00 50 1011.1
20260509180328 65 110 0.9 1.7 0.00 0.00 0.00 48 1011.3
20260509175825 67 150 0.9 2.6 0.00 0.00 0.00 50 1011.3
20260509175321 67 117 1.7 2.6 0.00 0.00 0.00 50 1011.2
20260509174818 66 257 5.2 8.7 0.00 0.00 0.00 48 1011.3
20260509174313 66 205 0.9 0.9 0.00 0.00 0.00 52 1011.4
20260509173810 65 64 0.9 0.9 0.00 0.00 0.00 51 1011.4
20260509173305 67 303 4.3 6.1 0.00 0.00 0.00 52 1011.6
20260509172802 68 292 5.2 7.0 0.00 0.00 0.00 49 1011.5
20260509172259 65 60 0.0 0.9 0.00 0.00 0.00 58 1011.5
20260509171754 65 140 3.5 6.1 0.00 0.00 0.00 56 1011.6
20260509171250 65 230 1.7 1.7 0.00 0.00 0.00 56 1011.6
20260509170747 65 206 0.9 1.7 0.00 0.00 0.00 57 1011.9
20260509170243 64 236 3.5 7.0 0.00 0.00 0.00 54 1011.7
20260509165742 66 154 0.9 1.7 0.00 0.00 0.00 55 1011.9
20260509165237 66 275 7.8 9.6 0.00 0.00 0.00 53 1011.9
20260509164733 65 227 3.5 5.2 0.00 0.00 0.00 60 1011.6